Weather History for CYZP - March, 2013

Change the Weather History Date:

Thursday, March 14, 2013

  Actual Average Record
Temperature  
Mean Temperature 42 °F -  
Max Temperature 46 °F 48 °F 53 °F (1998)
Min Temperature 38 °F 39 °F 26 °F (2006)
Degree Days  
Heating Degree Days 23    
Moisture  
Dew Point 41 °F    
Average Humidity 96    
Maximum Humidity 100    
Minimum Humidity 81    
Precipitation  
Precipitation 0.00 in 0.31 in - ()
Sea Level Pressure  
Sea Level Pressure 29.70 in    
Wind  
Wind Speed 8 mph ()    
Max Wind Speed 15 mph    
Max Gust Speed -    
Visibility 5.1 miles    
Events Rain    
Averages and records for this station are not official NWS values.
T = Trace of Precipitation, MM = Missing Value Source: Averaged Metar Reports

Daily Weather History Graph

Daily Weather History Graph

Search for Another Location

Airport or City:

Trip Planner

Search our weather history database for the weather conditions in past years. The results will help you decide how hot, cold, wet, or windy it might be!

Date:

Astronomy

Mar. 14, 2013 Rise Set
Actual Time 8:03 AM PDT 7:50 PM PDT
Civil Twilight 7:28 AM PDT 8:25 PM PDT
Nautical Twilight 6:48 AM PDT 9:05 PM PDT
Astronomical Twilight 6:06 AM PDT 9:47 PM PDT
Moon 8:51 AM PDT (3/14) 11:48 PM PDT (3/14)
Length of Visible Light 12h 56m
Length of Day
11h 47m
Waxing Crescent, 9% of the Moon is Illuminated
Mar 14
Waxing Crescent
Mar 19
First Quarter
Mar 27
Full
Apr 2
Last Quarter
Apr 10
New

Hourly Weather History & Observations

Time (PDT) Temp. Windchill Dew Point Humidity Pressure Visibility Wind Dir Wind Speed Gust Speed Precip Events Conditions
12:00 AM 41.0 °F 33.9 °F 35.6 °F 81% 29.81 in 9.0 mi ESE 12.7 mph - N/A   Overcast
12:35 AM 41.0 °F 34.3 °F 37.4 °F 87% 29.79 in 8.0 mi ESE 11.5 mph - N/A   Overcast
12:36 AM 41.0 °F 34.3 °F 37.4 °F 87% 29.79 in 7.0 mi ESE 11.5 mph - N/A Rain Light Rain
12:39 AM 41.0 °F 33.9 °F 37.4 °F 87% 29.79 in 6.0 mi ESE 12.7 mph - N/A Rain Light Rain
12:44 AM 41.0 °F 33.9 °F 37.4 °F 87% 29.79 in 6.0 mi ESE 12.7 mph - N/A Rain Light Rain
12:45 AM 41.0 °F 33.9 °F 37.4 °F 87% 29.79 in 6.0 mi ESE 12.7 mph - N/A Rain Light Rain
12:56 AM 41.0 °F 34.3 °F 39.2 °F 93% 29.79 in 9.0 mi ESE 11.5 mph - N/A Rain Light Rain
12:59 AM 41.0 °F 34.3 °F 39.2 °F 93% 29.79 in 9.0 mi ESE 11.5 mph - N/A Rain Light Rain
1:00 AM 41.0 °F 34.3 °F 39.2 °F 93% 29.79 in 9.0 mi ESE 11.5 mph - N/A Rain Light Rain
1:54 AM 41.0 °F 35.8 °F 39.2 °F 93% 29.78 in 8.0 mi SE 8.1 mph - N/A Rain Light Rain
1:59 AM 41.0 °F 37.1 °F 39.2 °F 93% 29.78 in 5.0 mi SE 5.8 mph - N/A Rain Rain
2:00 AM 41.0 °F 37.1 °F 39.2 °F 93% 29.78 in 5.0 mi SE 5.8 mph - N/A Rain Rain
2:04 AM 41.0 °F 38.0 °F 39.2 °F 93% 29.78 in 4.0 mi SE 4.6 mph - N/A Rain Light Rain
2:09 AM 41.0 °F 39.0 °F 39.2 °F 93% 29.78 in 6.0 mi South 3.5 mph - N/A Rain Light Rain
2:22 AM 41.0 °F 39.0 °F 39.2 °F 93% 29.77 in 6.0 mi WSW 3.5 mph - N/A Rain Light Rain
3:00 AM 39.2 °F - 39.2 °F 100% 29.75 in 9.0 mi Calm Calm - N/A Rain Light Rain
3:34 AM 39.2 °F - 39.2 °F 100% 29.74 in 5.0 mi SW 2.3 mph - N/A Rain Light Rain
4:00 AM 39.2 °F 35.9 °F 39.2 °F 100% 29.73 in 3.0 mi SW 4.6 mph - N/A Rain Light Rain
4:02 AM 39.2 °F 35.9 °F 39.2 °F 100% 29.74 in 3.0 mi SW 4.6 mph - N/A Rain Light Rain
4:15 AM 39.2 °F 35.9 °F 39.2 °F 100% 29.73 in 2.5 mi West 4.6 mph - N/A Rain Light Rain
4:23 AM 39.2 °F 37.0 °F 39.2 °F 100% 29.73 in 3.0 mi West 3.5 mph - N/A Rain Light Rain
4:51 AM 41.0 °F 38.0 °F 39.2 °F 93% 29.71 in 5.0 mi WNW 4.6 mph - N/A Rain Light Rain
4:59 AM 41.0 °F 38.0 °F 39.2 °F 93% 29.71 in 5.0 mi West 4.6 mph - N/A Rain Light Rain
5:00 AM 40 °F - - % 29.71 in - West 3.5 mph - -  
5:01 AM 41.0 °F 37.1 °F 39.2 °F 93% 29.71 in 6.0 mi West 5.8 mph - N/A Rain Light Rain
5:02 AM 41.0 °F 37.1 °F 39.2 °F 93% 29.71 in 6.0 mi West 5.8 mph - N/A Rain Light Rain
5:08 AM 41.0 °F 38.0 °F 39.2 °F 93% 29.71 in 5.0 mi West 4.6 mph - N/A Rain Light Rain
5:10 AM 41.0 °F 37.1 °F 39.2 °F 93% 29.71 in 4.0 mi West 5.8 mph - N/A   Overcast
5:15 AM 41.0 °F 38.0 °F 39.2 °F 93% 29.71 in 2.2 mi West 4.6 mph - N/A   Overcast
5:19 AM 41.0 °F 37.1 °F 39.2 °F 93% 29.71 in 1.8 mi West 5.8 mph - N/A   Overcast
5:37 AM 41.0 °F 36.4 °F 39.2 °F 93% 29.70 in 1.0 mi West 6.9 mph - N/A Rain Light Rain
6:00 AM 41.0 °F 38.0 °F 39.2 °F 93% 29.69 in 2.0 mi West 4.6 mph - N/A Rain Light Rain
6:08 AM 41.0 °F 37.1 °F 39.2 °F 93% 29.69 in 3.0 mi West 5.8 mph - N/A Rain Light Rain
7:00 AM 41.0 °F 37.1 °F 39.2 °F 93% 29.67 in 3.0 mi West 5.8 mph - N/A Rain Light Rain
7:04 AM 41.0 °F 37.1 °F 39.2 °F 93% 29.66 in 2.2 mi West 5.8 mph - N/A Rain Light Rain
7:13 AM 41.0 °F 37.1 °F 39.2 °F 93% 29.66 in 3.0 mi West 5.8 mph - N/A Rain Light Rain
7:53 AM 41.0 °F 36.4 °F 41.0 °F 100% 29.65 in 6.0 mi WNW 6.9 mph - N/A Rain Light Rain
8:00 AM 41.0 °F 35.8 °F 41.0 °F 100% 29.65 in 6.0 mi West 8.1 mph - N/A Rain Light Rain
8:04 AM 41.0 °F 36.4 °F 41.0 °F 100% 29.65 in 5.0 mi West 6.9 mph - N/A Rain Light Rain
9:00 AM 41.0 °F 35.2 °F 39.2 °F 93% 29.63 in 4.0 mi West 9.2 mph - N/A Rain Light Rain
9:17 AM 41.0 °F 36.4 °F 39.2 °F 93% 29.63 in 2.5 mi West 6.9 mph - N/A Rain Light Rain
9:59 AM 41.0 °F 34.3 °F 41.0 °F 100% 29.62 in 3.0 mi West 11.5 mph - N/A Rain Light Rain
10:00 AM 41.0 °F 34.3 °F 41.0 °F 100% 29.62 in 3.0 mi West 11.5 mph - N/A Rain Light Rain
10:58 AM 41.0 °F 36.4 °F 41.0 °F 100% 29.62 in 5.0 mi West 6.9 mph - N/A Rain Light Rain
11:00 AM 42 °F - - % 29.62 in - West 6.9 mph - -  
11:00 AM 41.0 °F 35.2 °F 41.0 °F 100% 29.62 in 5.0 mi West 9.2 mph - N/A Rain Rain
11:22 AM 41.0 °F 34.7 °F 41.0 °F 100% 29.61 in 6.0 mi WSW 10.4 mph - N/A Rain Light Rain
11:57 AM 44.6 °F 38.8 °F 42.8 °F 93% 29.60 in 8.0 mi NNW 11.5 mph - N/A   Overcast
12:00 PM 42.8 °F 37.0 °F 42.8 °F 100% 29.60 in 7.0 mi NW 10.4 mph - N/A   Overcast
12:07 PM 42.8 °F 36.2 °F 42.8 °F 100% 29.60 in 8.0 mi NW 12.7 mph - N/A   Overcast
12:13 PM 42.8 °F 35.8 °F 42.8 °F 100% 29.60 in 9.0 mi NW 13.8 mph - N/A Rain Light Rain
12:33 PM 42.8 °F 36.2 °F 41.0 °F 93% 29.60 in 5.0 mi West 12.7 mph - N/A Rain Light Rain
12:39 PM 42.8 °F 36.2 °F 41.0 °F 93% 29.60 in 2.5 mi West 12.7 mph - N/A Rain Light Rain
12:42 PM 42.8 °F 36.6 °F 41.0 °F 93% 29.60 in 1.5 mi West 11.5 mph - N/A Rain Light Rain
1:00 PM 42.8 °F 37.5 °F 42.8 °F 100% 29.61 in 0.6 mi West 9.2 mph - N/A Rain Light Rain
1:02 PM 42.8 °F 37.5 °F 42.8 °F 100% 29.61 in 0.6 mi West 9.2 mph - N/A Rain Light Rain
1:11 PM 42.8 °F 37.5 °F 42.8 °F 100% 29.61 in 0.8 mi West 9.2 mph - N/A Rain Light Rain
1:16 PM 42.8 °F 37.0 °F 42.8 °F 100% 29.61 in 0.8 mi West 10.4 mph - N/A Rain Light Rain
1:28 PM 42.8 °F 38.0 °F 42.8 °F 100% 29.62 in 0.8 mi WNW 8.1 mph - N/A Rain Light Rain
1:34 PM 44.6 °F 39.2 °F 42.8 °F 93% 29.62 in 0.8 mi NNW 10.4 mph - N/A Rain Light Rain
1:55 PM 44.6 °F 38.4 °F 42.8 °F 93% 29.62 in 1.0 mi NW 12.7 mph - N/A Rain Light Rain
2:00 PM 44.6 °F 38.1 °F 42.8 °F 93% 29.62 in 1.5 mi NW 13.8 mph - N/A Rain Light Rain
2:02 PM 44.6 °F 38.4 °F 42.8 °F 93% 29.62 in 2.0 mi NW 12.7 mph - N/A Rain Light Rain
2:11 PM 44.6 °F 38.1 °F 42.8 °F 93% 29.62 in 1.8 mi NW 13.8 mph - N/A Rain Light Rain
2:12 PM 44.6 °F 38.4 °F 42.8 °F 93% 29.62 in 1.8 mi NW 12.7 mph - N/A   Overcast
2:19 PM 44.6 °F 38.4 °F 44.6 °F 100% 29.62 in 2.0 mi NW 12.7 mph - N/A   Overcast
2:26 PM 44.6 °F 38.8 °F 44.6 °F 100% 29.62 in 3.0 mi WNW 11.5 mph - N/A   Overcast
2:28 PM 44.6 °F 38.8 °F 44.6 °F 100% 29.62 in 4.0 mi WNW 11.5 mph - N/A   Overcast
2:30 PM 44.6 °F 38.8 °F 44.6 °F 100% 29.63 in 6.0 mi WNW 11.5 mph - N/A   Overcast
2:34 PM 44.6 °F 39.2 °F 44.6 °F 100% 29.62 in 9.0 mi WNW 10.4 mph - N/A   Overcast
3:00 PM 46.4 °F 41.9 °F 44.6 °F 93% 29.62 in 9.0 mi NW 9.2 mph - N/A   Overcast
4:00 PM 44.6 °F 37.8 °F 42.8 °F 93% 29.64 in 8.0 mi NNW 15.0 mph - N/A   Overcast
4:41 PM 44.6 °F 38.8 °F 42.8 °F 93% 29.66 in 5.0 mi North 11.5 mph - N/A   Overcast
4:45 PM 44.6 °F 39.2 °F 42.8 °F 93% 29.67 in 2.2 mi North 10.4 mph - N/A   Overcast
4:46 PM 42.8 °F 37.0 °F 42.8 °F 100% 29.67 in 1.8 mi North 10.4 mph - N/A   Overcast
4:48 PM 44.6 °F 39.7 °F 42.8 °F 93% 29.67 in 1.5 mi North 9.2 mph - N/A Rain Light Rain
5:00 PM 44 °F - - % 29.68 in - North 9.2 mph - -  
5:00 PM 44.6 °F 39.7 °F 42.8 °F 93% 29.67 in 1.0 mi North 9.2 mph - N/A Rain Light Rain
5:37 PM 42.8 °F 38.0 °F 42.8 °F 100% 29.69 in 2.0 mi North 8.1 mph - N/A Rain Light Rain
5:43 PM 42.8 °F 38.6 °F 42.8 °F 100% 29.69 in 2.5 mi NNE 6.9 mph - N/A   Overcast
5:53 PM 42.8 °F 38.6 °F 42.8 °F 100% 29.69 in 3.0 mi NNE 6.9 mph - N/A   Overcast
6:00 PM 42.8 °F 38.0 °F 42.8 °F 100% 29.69 in 5.0 mi NNE 8.1 mph - N/A   Overcast
6:17 PM 44.6 °F 40.2 °F 42.8 °F 93% 29.70 in 6.0 mi North 8.1 mph - N/A   Overcast
6:18 PM 42.8 °F 38.0 °F 42.8 °F 100% 29.70 in 6.0 mi North 8.1 mph - N/A   Overcast
6:20 PM 42.8 °F 38.6 °F 42.8 °F 100% 29.70 in 7.0 mi North 6.9 mph - N/A   Overcast
6:27 PM 42.8 °F 39.3 °F 42.8 °F 100% 29.70 in 8.0 mi NNE 5.8 mph - N/A   Overcast
6:35 PM 42.8 °F 41.1 °F 42.8 °F 100% 29.71 in 9.0 mi NNE 3.5 mph - N/A   Overcast
7:00 PM 42.8 °F 40.1 °F 42.8 °F 100% 29.72 in 9.0 mi NNE 4.6 mph - N/A   Overcast
7:13 PM 42.8 °F - 41.0 °F 93% 29.73 in 9.0 mi Variable 2.3 mph - N/A   Scattered Clouds
7:17 PM 42.8 °F - 41.0 °F 93% 29.73 in 9.0 mi Variable 2.3 mph - N/A   Scattered Clouds
7:20 PM 42.8 °F - 41.0 °F 93% 29.73 in 9.0 mi Variable 2.3 mph - N/A   Mostly Cloudy
7:29 PM 42.8 °F - 41.0 °F 93% 29.73 in 9.0 mi East 2.3 mph - N/A   Mostly Cloudy
8:00 PM 42.8 °F 41.1 °F 41.0 °F 93% 29.75 in 9.0 mi SSE 3.5 mph - N/A   Overcast
8:35 PM 42.8 °F 40.1 °F 41.0 °F 93% 29.77 in 9.0 mi SSE 4.6 mph - N/A   Overcast
8:42 PM 42.8 °F 39.3 °F 41.0 °F 93% 29.77 in 5.0 mi SE 5.8 mph - N/A   Overcast
8:54 PM 42.8 °F 39.3 °F 42.8 °F 100% 29.77 in 2.5 mi ESE 5.8 mph - N/A   Overcast
8:57 PM 42.8 °F 39.3 °F 42.8 °F 100% 29.78 in 1.8 mi ESE 5.8 mph - N/A   Overcast
9:00 PM 42.8 °F 39.3 °F 42.8 °F 100% 29.78 in 1.8 mi SE 5.8 mph - N/A   Overcast
9:01 PM 42.8 °F 39.3 °F 42.8 °F 100% 29.78 in 2.0 mi SE 5.8 mph - N/A   Overcast
9:06 PM 42.8 °F 39.3 °F 42.8 °F 100% 29.78 in 3.0 mi SE 5.8 mph - N/A   Overcast
9:09 PM 42.8 °F 38.6 °F 42.8 °F 100% 29.78 in 6.0 mi SSE 6.9 mph - N/A   Overcast
9:25 PM 42.8 °F 38.6 °F 42.8 °F 100% 29.79 in 9.0 mi SSE 6.9 mph - N/A   Overcast
10:00 PM 42.8 °F 38.6 °F 41.0 °F 93% 29.80 in 9.0 mi SSE 6.9 mph - N/A   Mostly Cloudy
10:25 PM 41.0 °F 37.1 °F 41.0 °F 100% 29.81 in 9.0 mi SSE 5.8 mph - N/A   Mostly Cloudy
10:32 PM 41.0 °F 37.1 °F 41.0 °F 100% 29.81 in 9.0 mi SE 5.8 mph - N/A   Mostly Cloudy
10:36 PM 42.8 °F 38.6 °F 41.0 °F 93% 29.81 in 9.0 mi SE 6.9 mph - N/A   Mostly Cloudy
11:00 PM 42 °F - - % 29.81 in - SSE 5.8 mph - -  
11:00 PM 41.0 °F 36.4 °F 41.0 °F 100% 29.81 in 9.0 mi SSE 6.9 mph - N/A   Mostly Cloudy
11:03 PM 41.0 °F 36.4 °F 39.2 °F 93% 29.81 in 9.0 mi SSE 6.9 mph - N/A   Mostly Cloudy
11:30 PM 41.0 °F 36.4 °F 41.0 °F 100% 29.82 in 9.0 mi South 6.9 mph - N/A   Mostly Cloudy
11:31 PM 41.0 °F 36.4 °F 41.0 °F 100% 29.82 in 9.0 mi SSE 6.9 mph - N/A   Mostly Cloudy
11:35 PM 41.0 °F 35.8 °F 41.0 °F 100% 29.83 in 9.0 mi SSE 8.1 mph - N/A   Mostly Cloudy